Location: Gaast
(52.9002°N, 5.8891°E)
Time: 02:23:16
(UTC+00:00)

Iridium 4 Rocket - Visible Passes

Search period start: 19 February 2026 00:00
Search period end: 01 March 2026 00:00
Orbit: 580 x 886 km, 86.9° (Epoch: 18 February)

Date Brightness Start Highest point End Pass type
(mag) Time Alt. Az. Time Alt. Az. Time Alt. Az.
19 Feb 5.0 17:30:06 10° NE 17:30:57 10° ENE 17:31:46 10° ENE visible
19 Feb 2.9 19:07:10 10° N 19:11:46 70° E 19:13:00 45° SSE visible
19 Feb 5.9 20:48:08 10° NW 20:50:51 16° WNW 20:52:35 13° W visible
20 Feb 3.8 18:20:46 10° NNE 18:24:47 30° ENE 18:27:20 17° SE visible
20 Feb 4.6 20:00:29 10° NNW 20:04:34 34° W 20:06:56 19° SW visible
21 Feb 6.9 05:41:42 10° ENE 05:42:14 10° ENE 05:42:47 10° ENE visible
21 Feb 4.8 17:35:07 10° NNE 17:37:29 14° ENE 17:39:47 10° E visible
21 Feb 3.0 19:13:29 10° N 19:18:00 82° W 19:21:35 14° S visible
21 Feb 6.2 20:55:33 10° NW 20:56:49 11° WNW 20:58:04 10° W visible
22 Feb 3.4 18:26:53 10° N 18:31:08 41° E 18:35:07 10° SSE visible
22 Feb 5.3 20:07:03 10° NNW 20:10:38 24° W 20:14:03 10° SW visible
23 Feb 6.5 05:45:43 10° E 05:48:16 14° ENE 05:50:44 10° NE visible
23 Feb 4.4 17:40:50 10° NNE 17:43:58 19° ENE 17:46:59 10° ESE visible
23 Feb 3.6 19:19:50 10° N 19:24:10 56° W 19:28:15 10° SSW visible
24 Feb 3.0 18:33:04 10° N 18:37:25 59° E 18:41:32 10° SSE visible
24 Feb 5.8 20:13:48 10° NW 20:16:39 17° WNW 20:19:26 10° WSW visible
25 Feb 6.3 05:50:53 10° ESE 05:54:19 18° ENE 05:57:37 10° NE visible
25 Feb 4.0 17:46:45 10° NNE 17:50:22 25° ENE 17:53:52 10° SE visible
25 Feb 4.4 19:26:15 10° NNW 19:30:17 38° W 19:34:09 10° SSW visible
26 Feb 2.9 18:39:18 10° N 18:43:39 85° E 18:47:48 10° S visible
26 Feb 6.2 20:20:54 10° NW 20:22:38 12° WNW 20:24:19 10° W visible
27 Feb 3.6 17:52:46 10° N 17:56:43 35° ENE 18:00:32 10° SE visible
27 Feb 5.1 19:32:44 10° NNW 19:36:21 27° W 19:39:52 10° SW visible
28 Feb 6.9 05:12:54 10° E 05:14:11 11° ENE 05:15:27 10° NE visible
28 Feb 3.4 18:45:35 10° N 18:49:49 66° W 18:53:54 10° S visible
